Regional Weather Roundup
Issued by NWS

Home | Current Version | Previous Version | Text Only | Print | Product List | Glossary On
Versions: 1 2 3 4 5 6 7 8 9 10 11 12 13 14 15 16 17 18 19 20 21 22 23 24 25 26 27 28 29 30 31 32 33 34 35 36 37 38 39 40 41 42 43 44 45 46 47 48 49 50
000
ASUS43 KMKX 290700
RWRWI

WISCONSIN REGIONAL WEATHER ROUNDUP
NATIONAL WEATHER SERVICE MILWAUKEE/SULLIVAN WI
200 AM CDT SAT AUG 29 2015

NOTE: "FAIR" INDICATES FEW OR NO CLOUDS BELOW 12,000 FEET WITH NO
SIGNIFICANT WEATHER AND/OR OBSTRUCTIONS TO VISIBILITY.

WIZ001-002-006>008-014>016-023>028-290800-
NORTHWEST WISCONSIN

CITY           SKY/WX    TMP DP  RH WIND       PRES   REMARKS
SUPERIOR ARPT  PTCLDY    61  59  93 SW5       30.02R
ASHLAND        CLOUDY    63  60  90 SW8       30.04S
HAYWARD        MOCLDY    59  55  87 S3        30.06R
SIREN          CLEAR     58  56  92 CALM      30.05R
CUMBERLAND     CLEAR     54  52  94 SE3       30.05F
RICE LAKE      CLEAR     55  53  94 SE5       30.06F
CHETEK         CLEAR    N/A N/A N/A CALM      30.05F
LADYSMITH      CLEAR     54  53  96 SE5       30.08F
EAU CLAIRE     NOT AVBL
MENOMONIE      CLEAR     54  52  95 CALM      30.05F
NEW RICHMOND   CLEAR     55  55 100 SE3       30.04F
OSCEOLA        CLEAR     55  55 100 SE6       30.05F
$$

WIZ003>005-009-010-017-018-290800-
NORTH CENTRAL WISCONSIN

CITY           SKY/WX    TMP DP  RH WIND       PRES   REMARKS
MANITOWISH WTR PTCLDY    58  55  89 SW6       30.06F
ARBOR VITAE    PTCLDY    57  53  86 S5        30.07F
WOODRUFF       PTCLDY    57  53  86 S5        30.07F
RHINELANDER    CLEAR     56  53  90 S3        30.09F
EAGLE RIVER    PTCLDY    59  51  75 SW3       30.09F
LAND O LAKES   PTCLDY    60  52  75 SW5       30.08F
PHILLIPS       CLEAR     55  53  95 CALM      30.08S
TOMAHAWK       CLEAR     53  52  95 CALM      30.09F FOG
MEDFORD        CLEAR     53  53 100 CALM      30.08F
MERRILL        CLOUDY    58  56  92 SE3       30.10F
$$

WIZ029-030-035-036-043>047-290800-
CENTRAL WISCONSIN

CITY           SKY/WX    TMP DP  RH WIND       PRES   REMARKS
WAUSAU         CLOUDY    58  55  90 E3        30.09R
MOSINEE        CLOUDY    55  54  94 CALM      30.11R
MARSHFIELD     CLOUDY    58  53  84 E6        30.08S
STEVENS POINT  MOCLDY    55  54  95 SE3       30.08S
WAUPACA        RAIN      59  58  97 SE3       30.09S
WAUTOMA        NOT AVBL
WISC RAPIDS    LGT RAIN  58  55  90 SE5       30.08S
CAMP DOUGLAS   NOT AVBL
$$

WIZ011>013-019>022-031-037>040-048>050-290800-
NORTHEAST WISCONSIN

CITY           SKY/WX    TMP DP  RH WIND       PRES   REMARKS
ANTIGO         CLOUDY    56  55  95 S5        30.12R
SHAWANO        CLOUDY    60  56  89 CALM      30.10F
OCONTO         CLOUDY    59  59 100 CALM      30.10F
STURGEON BAY   CLOUDY    59  54  82 SW7       30.14S
GREEN BAY      CLOUDY    58  56  93 S3        30.11S
MANITOWOC      NOT AVBL
APPLETON       CLOUDY    55  55 100 SE5       30.08F
CLINTONVILLE   CLOUDY    57  55  94 S5        30.09S
OSHKOSH        LGT RAIN  58  55  90 E7        30.08F
$$

WIZ032>034-041-042-053>061-290800-
SOUTHWEST WISCONSIN

CITY           SKY/WX    TMP DP  RH WIND       PRES   REMARKS
LA CROSSE      CLOUDY    61  58  90 NE5       30.01S
SPARTA         CLOUDY    58  56  94 E7        30.04S
VIROQUA        CLOUDY    58  58 100 E9        30.01S
BOSCOBEL       LGT RAIN  63  62  97 NE5       29.98F FOG
PRAIRIE DU CHI RAIN      63  61  95 E8        29.96F
PLATTEVILLE    CLOUDY    64  64  98 SE8       29.97F
$$

WIZ056-057-062-063-064-067-068-290800-
SOUTH CENTRAL WISCONSIN

CITY           SKY/WX    TMP DP  RH WIND       PRES   REMARKS
REEDSBURG      DRIZZLE   56  56  99 E3        30.04F
BARABOO/DELLS  DRIZZLE   56  55  94 CALM      30.05S
LONE ROCK      LGT RAIN  62  60  93 NE10      30.00F FOG
MINERAL POINT  RAIN      64  63  94 SE12      30.00S
MADISON        HVY RAIN  60  59  96 E7        30.03F FOG
MIDDLETON      CLOUDY    63  63  98 E3G9      30.03F
WATERTOWN      LGT RAIN  60  60 100 E7        30.04F
MONROE         LGT RAIN  63  61  94 SE18      30.00F
JANESVILLE     LGT RAIN  64  63  94 SE9       30.03S
$$

WIZ051-052-058>065-066-070>072-290800-
SOUTHEAST WISCONSIN

CITY           SKY/WX    TMP DP  RH WIND       PRES   REMARKS
MILWAUKEE      LGT RAIN  63  62  97 SE9       30.06F FOG
WAUKESHA       DRIZZLE   59  57  94 NE8       30.08F
MILWAUKEE/TIMM LGT RAIN  59  54  82 NE6       30.09F
RACINE         LGT RAIN  64  61  90 SE10      30.08F FOG
BURLINGTON     RAIN      62  60  96 SE6       30.06F
KENOSHA        LGT RAIN  65  63  93 E10       30.06F FOG
FOND DU LAC    RAIN      58  56  93 E7        30.08F
SHEBOYGAN      LGT RAIN  58  56  93 N6        30.10S FOG
WEST BEND      RAIN      57  54  88 E3        30.09F
JUNEAU         RAIN      58  57  97 NE7       30.07F
$$

LSZ147-162-290800-
LAKE SUPERIOR

STATION/POSITION TIME  TEMP    WIND        PRES    WAVE
                       AIR SEA DIR/SP/G            HT/PER
                 (UTC) (F)     (DEG/KT/KT) (MB)    (FT/S)
W MID LAKE BUOY  0550   61 56  330/ 12/ 16 1017.3R   2/ 4
DEVILS ISLAND    0600   62     260/ 10/ 12 1016.8R
PORT WING        0600   66     210/  7/ 11 1016.9
SAXON HARBOR     0600   65     200/  3/  9 1016.3S
$$

LMZ867-665-643>646-290800-
LAKE MICHIGAN

STATION/POSITION TIME  TEMP    WIND        PRES    WAVE
                       AIR SEA DIR/SP/G            HT/PER
                 (UTC) (F)     (DEG/KT/KT) (MB)    (FT/S)
CHAMBERS ISLAND  0600   61     210/  6/ 13 1019.6R
S GREEN BAY BUOY 0630   61 62  230/ 10/ 14 1021.2R
N MID LAKE BUOY  0550   64 64  230/ 21/ 25 1017.8S   3/ 4
NORTHPORT PIER   0600   63     260/  7/ 16 1019.0R
SISTER BAY       0619   62     260/ 17/ 20   N/A
ALGOMA LAKESHORE 0614          240/  4/  6   N/A
SHEBOYGAN LAKESH 0600   57     360/ 14/ 14 1019.5F
PORT WASHINGTON  0640   59      40/  2/  3 1019.3S
ATWATER BUOY     0600   54 48  120/  8/ 10 1019.5F
MILWAUKEE LAKESH 0600   56     150/  4/  5   N/A
S MID LAKE BUOY  0550   68 68   60/  8/ 10 1019.0S   0
KENOSHA   LAKESH 0600   63      90/ 14/ 15 1018.3F
$$

TC  - TEMPERATURE IN CELSIUS
VSB - VISIBILITY IN STATUTE MILES
WCI - WIND CHILL INDEX
HX  - HEAT INDEX



USA.gov is the U.S. government's official web portal to all federal, state and local government web resources and services.